Bradford, PA

5:39 AM EST on December 11, 2019 (GMT -0500)
Bradford Regional

Weather History for KBFD - August, 2019

Change the Weather History Date:

Monday, August 12, 2019

  Actual Average Record
Temperature  
Mean Temperature 66 °F 65 °F  
Max Temperature 81 °F 76 °F 87 °F (1988)
Min Temperature 51 °F 53 °F 37 °F (1967)
Degree Days  
Heating Degree Days 0 1  
Month to date heating degree days 11 4  
Since 1 June heating degree days 145 213  
Since 1 July heating degree days 23 68  
Cooling Degree Days 1 2  
Month to date cooling degree days 23 24  
Year to date cooling degree days 213 148  
Since 1 June cooling degree days 206 138  
Growing Degree Days 16 (Base 50)    
Moisture  
Dew Point 57 °F    
Average Humidity 73    
Maximum Humidity 100    
Minimum Humidity 45    
Precipitation  
Precipitation 0.00 in 0.12 in 1.83 in (2014)
Month to date precipitation 1.77 1.61  
Year to date precipitation 29.74 27.45  
Sea Level Pressure  
Sea Level Pressure 29.98 in    
Wind  
Wind Speed 4 mph (SSW)    
Max Wind Speed 12 mph    
Max Gust Speed 20 mph    
Visibility 10 miles    
Events      
T = Trace of Precipitation, MM = Missing Value Source: NWS Daily Summary

Daily Weather History Graph

Daily Weather History Graph

Search for Another Location

Airport or City:

Astronomy

Aug. 12, 2019 Rise Set
Actual Time 6:19 AM EDT 8:19 PM EDT
Civil Twilight 5:49 AM EDT 8:49 PM EDT
Nautical Twilight 5:12 AM EDT 9:26 PM EDT
Astronomical Twilight 4:31 AM EDT 10:06 PM EDT
Moon 6:49 PM EDT (8/12) 3:24 AM EDT (8/12)
Length of Visible Light 15h 00m
Length of Day
13h 59m
Waxing Gibbous, 93% of the Moon is Illuminated
Aug 12
Waxing Gibbous
Aug 15
Full
Aug 23
Last Quarter
Aug 30
New
Sep 5
First Quarter

Hourly Weather History & Observations

Time (EDT) Temp. Heat Index Dew Point Humidity Pressure Visibility Wind Dir Wind Speed Gust Speed Precip Events Conditions
12:53 AM 53.1 °F - 52.0 °F 96% 30.04 in 10.0 mi ESE 4.6 mph - N/A   Partly Cloudy
1:53 AM 54.0 °F - 52.0 °F 93% 30.04 in 10.0 mi Calm Calm - N/A   Clear
2:53 AM 52.0 °F - 51.1 °F 97% 30.04 in 10.0 mi Calm Calm - N/A   Clear
3:53 AM 57.9 °F - 53.1 °F 84% 30.03 in 10.0 mi Calm Calm - N/A   Scattered Clouds
4:53 AM 53.1 °F - 51.1 °F 93% 30.03 in 10.0 mi Calm Calm - N/A   Mostly Cloudy
5:53 AM 54.0 °F - 53.1 °F 97% 30.02 in 10.0 mi Calm Calm - N/A   Overcast
6:53 AM 57.0 °F - 55.0 °F 93% 30.02 in 10.0 mi Calm Calm - N/A   Partly Cloudy
7:53 AM 64.0 °F - 55.9 °F 75% 30.01 in 10.0 mi SSW 4.6 mph - N/A   Mostly Cloudy
8:53 AM 66.9 °F - 57.0 °F 70% 30.02 in 10.0 mi Variable 3.5 mph - N/A   Mostly Cloudy
9:53 AM 68.0 °F - 57.9 °F 70% 30.03 in 10.0 mi Variable 3.5 mph - N/A   Mostly Cloudy
10:53 AM 72.0 °F - 57.9 °F 61% 30.02 in 10.0 mi Variable 3.5 mph - N/A   Overcast
11:53 AM 75.0 °F - 59.0 °F 57% 30.01 in 10.0 mi WSW 6.9 mph - N/A   Mostly Cloudy
12:53 PM 75.9 °F - 59.0 °F 56% 29.97 in 10.0 mi Variable 6.9 mph - N/A   Partly Cloudy
1:53 PM 79.0 °F - 57.9 °F 48% 29.96 in 10.0 mi South 5.8 mph - N/A   Overcast
2:53 PM 80.1 °F 80.6 °F 57.9 °F 47% 29.95 in 10.0 mi WSW 8.1 mph - N/A   Partly Cloudy
3:53 PM 78.1 °F - 57.9 °F 50% 29.92 in 10.0 mi SSW 9.2 mph - N/A   Mostly Cloudy
4:53 PM 78.1 °F - 59.0 °F 52% 29.91 in 10.0 mi West 4.6 mph - N/A   Overcast
5:53 PM 77.0 °F - 59.0 °F 54% 29.91 in 10.0 mi WSW 4.6 mph - N/A   Overcast
6:53 PM 73.0 °F - 60.1 °F 64% 29.92 in 10.0 mi SW 11.5 mph 20.7 mph N/A   Overcast
7:53 PM 70.0 °F - 60.1 °F 71% 29.91 in 10.0 mi SW 3.5 mph - N/A   Overcast
8:53 PM 66.9 °F - 61.0 °F 81% 29.90 in 10.0 mi SE 3.5 mph - N/A   Mostly Cloudy
10:53 PM 64.9 °F - 62.1 °F 90% 29.90 in 10.0 mi Calm Calm - N/A   Overcast
11:53 PM 66.9 °F - 60.1 °F 79% 29.89 in 10.0 mi SSW 3.5 mph - N/A   Mostly Cloudy